1504796400.76,11918,16.81,73472.8,1.01,-35.01,-35.13,0,*7E
1504796402.0,11919,16.81,73474.8,1.03,-34.77,-34.71,0,*78
1504796403.21,11920,16.75,73468.3,1.01,-35.01,-35.13,0,*75
1504796404.45,11921,16.75,73460.3,1.01,-34.95,-35.01,0,*7B
1504796405.69,11922,16.75,73470.3,1.01,-35.65,-35.65,0,*74
1504796406.92,11923,16.81,73468.0,1.01,-35.35,-35.17,0,*75
1504796408.18,11924,16.75,73466.0,0.99,-34.47,-34.31,0,*43
1504796409.41,11925,16.81,73464.8,0.99,-34.13,-34.13,0,*43
1504796410.63,11926,16.81,73474.3,0.99,-34.13,-34.25,0,*45
1504796411.88,11927,16.75,73468.3,0.99,-34.25,-34.31,0,*44
1504796413.11,11928,16.75,73462.5,0.99,-33.21,-33.03,0,*4E
1504796414.36,11929,16.81,73468.3,0.99,-32.97,-33.03,0,*43
1504796415.6,11930,16.81,73466.3,1.01,-33.83,-34.01,0,*7A
1504796416.85,11931,16.81,73470.0,1.01,-33.89,-33.89,0,*76
1504796418.07,11932,16.81,73470.3,1.01,-34.53,-34.25,0,*74
1504796419.28,11933,16.81,73470.5,1.01,-34.71,-34.59,0,*7E
1504796420.5,11934,16.75,73466.5,1.01,-35.01,-35.01,0,*73
1504796421.76,11935,16.81,73470.3,1.01,-34.95,-34.95,0,*72
1504796423.03,11936,16.75,73460.0,0.99,-35.53,-35.53,0,*41
1504796424.23,11937,16.75,73452.8,0.97,-35.71,-35.71,0,*4E
1504796425.45,11938,16.81,73462.5,0.97,-35.77,-35.89,0,*40
1504796426.65,11939,16.75,73466.3,0.93,-35.01,-34.89,0,*45
1504796427.88,11940,16.81,73468.8,0.93,-35.23,-35.47,0,*48
1504796429.13,11941,16.81,73470.0,0.91,-35.13,-35.07,0,*4C
1504796430.36,11942,16.81,73468.3,0.91,-34.89,-34.89,0,*4A
1504796431.56,11943,16.81,73472.3,0.89,-35.71,-35.71,0,*42
1504796432.75,11944,16.75,73464.0,0.89,-35.71,-35.71,0,*45
1504796433.98,11945,16.81,73468.0,0.89,-35.47,-35.35,0,*41
1504796435.23,11946,16.81,73474.0,0.87,-35.23,-35.13,0,*4A
1504796436.51,11947,16.75,73478.3,0.87,-34.95,-34.83,0,*4F
1504796437.79,11948,16.81,73478.5,0.87,-34.83,-34.65,0,*4F
1504796439.02,11949,16.81,73474.0,0.87,-35.89,-35.59,0,*4B
1504796440.26,11950,16.75,73484.8,0.83,-35.77,-35.29,0,*41
1504796441.53,11951,16.75,73486.3,0.83,-35.07,-34.35,0,*4B
1504796442.76,11952,16.75,73480.0,0.85,-34.25,-34.01,0,*48
1504796444.0,11953,16.75,73482.3,0.85,-34.59,-34.65,0,*40
1504796445.23,11954,16.75,73480.3,0.85,-34.01,-33.83,0,*45
1504796446.44,11955,16.81,73490.5,0.85,-33.37,-33.37,0,*49
1504796447.63,11956,16.75,73490.8,0.85,-34.25,-34.25,0,*4A
1504796448.83,11957,16.81,73488.0,0.85,-33.67,-33.55,0,*4A
1504796450.03,11958,16.81,73478.8,0.85,-33.55,-33.55,0,*44
1504796451.28,11959,16.75,73480.8,0.85,-34.83,-34.83,0,*45
1504796452.5,11960,16.75,73472.8,0.85,-35.89,-35.89,0,*4F
1504796453.75,11961,16.75,73478.8,0.83,-36.73,-36.79,0,*42
1504796455.03,11962,16.81,73476.8,0.83,-36.79,-36.91,0,*4D
1504796456.3,11963,16.75,73474.5,0.79,-35.35,-35.23,0,*48
1504796457.53,11964,16.81,73472.8,0.79,-33.83,-33.67,0,*42
1504796458.78,11965,16.81,73468.3,0.79,-34.19,-34.13,0,*43
1504796460.0,11966,16.75,73464.0,0.81,-33.61,-33.55,0,*4A
1504796461.24,11967,16.81,73464.0,0.81,-32.79,-32.51,0,*46
1504796462.49,11968,16.81,73466.0,0.83,-32.63,-32.35,0,*42
1504796463.75,11969,16.81,73466.0,0.85,-32.75,-32.45,0,*45
1504796464.98,11970,16.81,73468.8,0.85,-33.03,-32.79,0,*42
1504796466.21,11971,16.81,73476.3,0.89,-32.91,-32.75,0,*49
1504796467.43,11972,16.81,73486.3,0.89,-32.91,-32.75,0,*4A
1504796468.69,11973,16.75,73490.8,0.89,-33.09,-32.79,0,*47
1504796469.93,11974,16.81,73492.5,0.89,-34.35,-34.19,0,*48
1504796471.15,11975,16.75,73490.0,0.89,-34.41,-34.19,0,*4A
1504796472.38,11976,16.81,73486.0,0.89,-34.19,-34.07,0,*4B
1504796473.63,11977,16.81,73484.8,0.89,-33.49,-33.31,0,*4A
1504796474.88,11978,16.75,73480.3,0.89,-33.49,-33.49,0,*4A
1504796476.13,11979,16.75,73462.8,0.93,-33.89,-33.89,0,*40
1504796477.36,11980,16.81,73462.8,0.93,-33.77,-33.55,0,*46
1504796478.56,11981,16.81,73458.0,0.93,-33.21,-33.03,0,*47
1504796479.82,11982,16.81,73458.8,0.91,-33.03,-32.75,0,*46
1504796481.08,11983,16.75,73444.3,0.91,-32.91,-32.75,0,*4D
1504796482.31,11984,16.75,73448.0,0.93,-33.03,-32.75,0,*42
1504796483.53,11985,16.81,73454.5,0.93,-32.91,-32.63,0,*4E
1504796484.76,11986,16.81,73456.0,0.97,-33.31,-33.21,0,*45
1504796486.02,11987,16.75,73458.5,0.97,-32.79,-32.63,0,*4E
1504796487.27,11988,16.81,73462.5,0.99,-32.45,-32.23,0,*44
1504796488.47,11989,16.81,73466.0,1.01,-32.23,-32.01,0,*75
1504796489.7,11990,16.81,73464.8,1.01,-32.97,-32.91,0,*7B
1504796490.96,11991,16.81,73468.3,1.01,-33.27,-33.27,0,*7C
1504796492.18,11992,16.75,73470.5,1.03,-33.15,-33.15,0,*7D
1504796493.44,11993,16.81,73478.3,1.01,-33.49,-33.49,0,*7E
1504796494.69,11994,16.81,73468.3,1.01,-34.01,-33.89,0,*7E
1504796495.9,11995,16.81,73464.0,1.01,-33.83,-33.83,0,*78
1504796497.13,11996,16.75,73464.0,1.01,-33.67,-33.49,0,*77
1504796498.41,11997,16.75,73460.5,1.03,-33.43,-33.31,0,*7D
1504796499.64,11998,16.75,73456.0,1.01,-32.79,-32.57,0,*79
1504796500.9,11999,16.81,73460.0,1.03,-32.75,-32.39,0,*7E
1504796502.13,12000,16.75,73458.3,1.01,-32.75,-32.39,0,*76
1504796503.39,12001,16.75,73454.5,1.03,-32.23,-32.07,0,*7B
1504796504.61,12002,16.81,73454.5,1.05,-32.13,-31.85,0,*74
1504796505.88,12003,16.81,73452.5,1.07,-32.51,-32.19,0,*77
1504796507.1,12004,16.75,73452.5,1.07,-32.35,-32.13,0,*78
1504796508.34,12005,16.81,73454.0,1.11,-32.39,-32.07,0,*77
1504796509.6,12006,16.81,73448.8,1.09,-33.49,-33.21,0,*7E
1504796510.85,12007,16.75,73456.8,1.09,-33.15,-32.85,0,*79
1504796512.08,12008,16.75,73454.8,1.09,-33.21,-33.03,0,*7E
1504796513.33,12009,16.81,73458.0,1.11,-33.27,-32.97,0,*7C
1504796514.57,12010,16.75,73460.0,1.11,-32.63,-32.35,0,*7D
1504796515.83,12011,16.81,73466.0,1.11,-32.79,-32.45,0,*70
1504796517.06,12012,16.75,73472.8,1.11,-32.63,-32.35,0,*7F
1504796518.31,12013,16.81,73476.5,1.13,-32.45,-32.23,0,*7F
1504796519.58,12014,16.81,73482.5,1.13,-32.75,-32.39,0,*70
1504796520.87,12015,16.75,73486.3,1.13,-32.75,-32.45,0,*7A
1504796522.15,12016,16.81,73490.5,1.13,-32.79,-32.63,0,*71
1504796523.39,12017,16.81,73490.8,1.15,-33.03,-32.85,0,*72
1504796524.66,12018,16.75,73488.3,1.15,-33.09,-32.85,0,*77
1504796525.93,12019,16.81,73486.3,1.13,-33.77,-33.61,0,*72
1504796527.21,12020,16.75,73480.3,1.13,-34.35,-34.19,0,*71
1504796528.47,12021,16.81,73474.3,1.13,-34.83,-34.71,0,*73
1504796529.69,12022,16.81,73466.3,1.11,-35.01,-34.77,0,*7F
1504796530.92,12023,16.75,73468.3,1.09,-35.89,-35.59,0,*7A
1504796532.18,12024,16.75,73474.5,1.09,-34.83,-34.47,0,*78
1504796533.41,12025,16.81,73466.5,1.05,-33.83,-33.77,0,*76
1504796534.69,12026,16.81,73484.3,1.07,-34.53,-34.31,0,*78
1504796535.95,12027,16.81,73472.5,1.05,-35.23,-35.07,0,*79
1504796537.17,12028,16.81,73462.3,1.05,-33.77,-33.55,0,*70
1504796538.4,12029,16.81,73466.0,1.05,-33.27,-33.03,0,*77
1504796539.63,12030,16.75,73476.3,1.05,-35.23,-35.13,0,*7A
1504796540.84,12031,16.75,73472.8,1.01,-37.15,-36.85,0,*74
1504796542.07,12032,16.81,73478.0,1.01,-36.49,-36.31,0,*70
1504796543.3,12033,16.81,73474.5,0.97,-35.07,-35.01,0,*46
1504796544.51,12034,16.75,73472.8,0.97,-34.07,-34.07,0,*47
1504796545.71,12035,16.81,73478.5,0.97,-33.83,-33.67,0,*4C
1504796546.97,12036,16.81,73480.3,0.93,-33.77,-33.77,0,*41
1504796548.22,12037,16.75,73478.3,0.91,-33.09,-33.03,0,*48
1504796549.45,12038,16.75,73476.5,0.93,-32.63,-32.35,0,*4C
1504796550.72,12039,16.75,73480.3,0.99,-32.45,-32.29,0,*4E
1504796551.97,12040,16.81,73486.5,0.99,-33.89,-33.83,0,*40
1504796553.17,12041,16.81,73488.5,0.97,-34.41,-34.13,0,*42
1504796554.4,12042,16.81,73480.0,0.97,-33.83,-33.73,0,*49
1504796555.61,12043,16.75,73484.0,0.97,-34.13,-33.95,0,*4E
1504796556.81,12044,16.81,73484.5,0.97,-34.47,-34.25,0,*44
1504796558.04,12045,16.81,73482.5,0.97,-34.47,-34.31,0,*40
1504796559.29,12046,16.81,73488.8,0.97,-35.23,-35.23,0,*42
1504796560.52,12047,16.75,73486.3,0.93,-35.23,-35.47,0,*45
1504796561.81,12048,16.81,73484.5,0.91,-35.83,-35.95,0,*4D
1504796563.08,12049,16.81,73476.0,0.91,-35.65,-35.65,0,*4B
1504796564.28,12050,16.75,73462.0,0.89,-34.89,-34.77,0,*4B
1504796565.54,12051,16.81,73454.3,0.87,-32.79,-32.69,0,*44
1504796566.79,12052,16.81,73444.3,0.87,-32.79,-32.57,0,*4A
1504796568.04,12053,16.81,73446.8,0.89,-33.43,-33.31,0,*4C
1504796569.27,12054,16.81,73448.8,0.93,-32.51,-32.19,0,*49
1504796570.52,12055,16.75,73448.8,0.93,-32.63,-32.29,0,*4A
1504796571.76,12056,16.81,73458.8,0.93,-32.45,-32.29,0,*4D
1504796572.99,12057,16.75,73460.0,0.93,-32.45,-32.13,0,*45
1504796574.27,12058,16.81,73466.0,0.99,-31.95,-31.73,0,*4B
1504796575.53,12059,16.81,73462.0,1.01,-31.73,-31.51,0,*72
1504796576.8,12060,16.75,73466.5,1.03,-32.07,-31.73,0,*7A
1504796578.08,12061,16.81,73468.5,1.03,-32.19,-31.85,0,*7D
1504796579.31,12062,16.75,73468.5,1.03,-32.57,-32.35,0,*7C
1504796580.55,12063,16.81,73468.0,1.05,-32.75,-32.51,0,*79
1504796581.75,12064,16.75,73464.0,1.05,-32.35,-32.01,0,*7F
1504796583.01,12065,16.81,73466.0,1.07,-32.51,-32.19,0,*77
1504796584.27,12066,16.75,73468.0,1.07,-32.45,-32.13,0,*7B
1504796585.52,12067,16.81,73474.0,1.07,-32.51,-32.29,0,*76
1504796586.76,12068,16.81,73476.5,1.07,-32.69,-32.35,0,*7F
1504796588.0,12069,16.75,73474.0,1.09,-32.69,-32.39,0,*7C
1504796589.26,12070,16.81,73480.5,1.11,-33.49,-33.49,0,*78
1504796590.47,12071,16.81,73468.3,1.11,-34.07,-34.07,0,*79
1504796591.73,12072,16.81,73466.0,1.07,-33.83,-33.77,0,*76
1504796592.97,12073,16.75,73458.0,1.07,-32.91,-32.91,0,*7C
1504796594.25,12074,16.81,73466.8,1.09,-32.79,-32.79,0,*75
1504796595.53,12075,16.75,73454.5,1.07,-34.83,-34.83,0,*7A
1504796596.8,12076,16.81,73442.0,1.07,-34.47,-34.19,0,*72
1504796598.03,12077,16.75,73448.8,1.05,-33.03,-32.75,0,*7A
1504796599.29,12078,16.75,73452.0,1.07,-33.03,-32.85,0,*78
1504796600.54,12079,16.81,73452.3,1.09,-32.69,-32.51,0,*73
1504796601.77,12080,16.75,73446.8,1.09,-33.21,-33.15,0,*79
1504796603.03,12081,16.81,73456.8,1.11,-32.45,-32.07,0,*70
1504796604.22,12082,16.81,73462.3,1.11,-32.35,-32.13,0,*71
1504796605.46,12083,16.75,73462.5,1.11,-31.73,-31.67,0,*71
1504796606.7,12084,16.81,73472.8,1.09,-32.69,-32.51,0,*71
1504796607.9,12085,16.75,73492.8,1.11,-32.57,-32.23,0,*71
1504796609.19,12086,16.81,73486.5,1.13,-33.31,-33.27,0,*74
1504796610.43,12087,16.75,73482.0,1.13,-34.77,-34.59,0,*7E
1504796611.66,12088,16.81,73478.3,1.11,-35.01,-34.83,0,*74
1504796612.88,12089,16.75,73470.0,1.09,-34.25,-34.25,0,*77
1504796614.11,12090,16.81,73464.5,1.09,-34.25,-34.13,0,*7A
1504796615.39,12091,16.81,73466.8,1.07,-34.19,-34.19,0,*70
1504796616.67,12092,16.75,73454.0,1.07,-35.23,-35.07,0,*75
1504796617.96,12093,16.81,73462.3,1.07,-34.83,-34.65,0,*7A
1504796619.17,12094,16.75,73458.8,1.05,-33.95,-33.83,0,*70
1504796620.4,12095,16.81,73470.0,1.05,-33.37,-33.27,0,*77
1504796621.64,12096,16.81,73474.5,1.05,-35.23,-35.13,0,*76
1504796622.87,12097,16.75,73474.5,1.03,-34.59,-34.59,0,*72
1504796624.15,12098,16.81,73472.8,1.03,-33.43,-33.27,0,*7F
1504796625.38,12099,16.75,73468.0,1.05,-32.19,-32.01,0,*73
1504796626.63,12100,16.75,73476.0,1.03,-32.23,-32.19,0,*74
1504796627.89,12101,16.81,73484.0,1.07,-32.57,-32.29,0,*71
1504796629.12,12102,16.81,73482.8,1.07,-33.95,-33.83,0,*7C
1504796630.41,12103,16.81,73482.3,1.07,-34.83,-34.83,0,*7A
1504796631.62,12104,16.81,73478.0,1.05,-35.29,-35.29,0,*7F
1504796632.85,12105,16.75,73470.3,1.03,-34.77,-34.59,0,*74
1504796634.11,12106,16.81,73470.3,1.01,-34.53,-34.35,0,*79
1504796635.31,12107,16.81,73464.5,1.01,-34.89,-34.71,0,*7F
1504796636.53,12108,16.81,73462.8,1.03,-34.41,-34.41,0,*75
1504796637.79,12109,16.81,73478.8,1.01,-33.31,-33.27,0,*71
1504796639.05,12110,16.81,73488.0,1.03,-32.79,-32.91,0,*7A
1504796640.28,12111,16.81,73476.3,1.03,-34.71,-34.71,0,*7D
1504796641.49,12112,16.81,73464.3,1.01,-35.29,-35.47,0,*74
1504796642.75,12113,16.81,73472.5,0.97,-35.07,-35.07,0,*43
1504796643.95,12114,16.81,73470.3,0.97,-34.07,-33.95,0,*48
1504796645.15,12115,16.81,73464.5,0.97,-34.47,-34.41,0,*43
1504796646.41,12116,16.75,73460.8,0.97,-34.95,-34.83,0,*41
1504796647.64,12117,16.81,73456.5,0.97,-34.31,-34.13,0,*47
1504796648.87,12118,16.81,73460.5,0.97,-33.37,-33.31,0,*4E
1504796650.07,12119,16.75,73458.3,0.97,-33.15,-33.21,0,*4E
1504796651.3,12120,16.75,73466.5,0.97,-32.79,-32.57,0,*4F
1504796652.55,12121,16.75,73470.0,0.99,-32.57,-32.45,0,*4F
1504796653.83,12122,16.75,73466.3,0.99,-32.63,-32.45,0,*4B
1504796655.12,12123,16.81,73464.5,0.99,-32.85,-32.85,0,*4E
1504796656.35,12124,16.81,73482.0,1.01,-32.63,-32.51,0,*78
1504796657.6,12125,16.81,73468.3,1.03,-34.19,-34.41,0,*77
1504796658.8,12126,16.81,73468.5,1.01,-35.13,-35.17,0,*7F
1504796660.01,12127,16.81,73472.8,1.01,-34.59,-34.59,0,*7A
1504796661.23,12128,16.81,73466.8,1.01,-34.35,-34.41,0,*76
1504796662.46,12129,16.75,73452.8,0.99,-33.95,-34.07,0,*48
1504796663.69,12130,16.81,73452.8,0.99,-33.03,-33.03,0,*4C
1504796664.94,12131,16.81,73460.3,0.99,-32.97,-33.03,0,*41
1504796666.2,12132,16.81,73470.0,0.99,-33.73,-33.83,0,*41
1504796667.45,12133,16.81,73464.0,0.99,-33.89,-33.95,0,*42
1504796668.73,12134,16.81,73454.5,0.99,-34.31,-34.31,0,*48
1504796669.98,12135,16.81,73474.3,0.99,-32.97,-33.03,0,*45
1504796671.24,12136,16.75,73474.8,0.99,-33.73,-33.67,0,*4F
1504796672.52,12137,16.75,73476.8,0.99,-32.85,-32.97,0,*48
1504796673.78,12138,16.81,73484.8,1.01,-33.49,-33.43,0,*7E
1504796675.02,12139,16.81,73486.3,1.01,-35.83,-35.89,0,*7F
1504796676.23,12140,16.81,73478.8,1.01,-36.31,-36.43,0,*7E
1504796677.43,12141,16.75,73466.0,0.97,-35.89,-36.07,0,*41
1504796678.64,12142,16.81,73454.0,0.93,-35.77,-35.77,0,*43
1504796679.92,12143,16.81,73430.3,0.91,-34.35,-34.35,0,*40
1504796681.2,12144,16.81,73436.8,0.91,-33.77,-33.77,0,*47
1504796682.48,12145,16.81,73432.3,0.91,-34.53,-34.53,0,*46
1504796683.71,12146,16.81,73428.3,0.91,-33.55,-33.55,0,*45
1504796684.96,12147,16.81,73446.0,0.93,-32.29,-32.19,0,*45
1504796686.18,12148,16.81,73450.5,0.93,-32.19,-32.13,0,*43
1504796687.39,12149,16.81,73454.0,0.93,-32.51,-32.35,0,*4A
1504796688.61,12150,16.81,73448.8,0.97,-32.57,-32.29,0,*4D
1504796689.87,12151,16.81,73450.0,0.97,-32.63,-32.45,0,*41
1504796691.13,12152,16.81,73462.3,0.99,-32.69,-32.63,0,*42
1504796692.35,12153,16.75,73450.5,0.97,-32.63,-32.57,0,*40
1504796693.58,12154,16.75,73444.3,0.99,-32.69,-32.57,0,*43
1504796694.84,12155,16.75,73460.3,1.01,-32.79,-32.79,0,*7F
1504796696.09,12156,16.81,73474.8,1.03,-33.09,-33.15,0,*73
1504796697.35,12157,16.81,73478.3,1.01,-33.09,-32.97,0,*7B
1504796698.58,12158,16.81,73480.5,1.01,-32.75,-32.39,0,*7A
1504796699.86,12159,16.75,73482.0,1.03,-32.07,-31.91,0,*7D
1504796701.12,12160,16.81,73488.5,1.03,-32.07,-32.01,0,*7D
1504796702.35,12161,16.81,73488.3,1.05,-32.57,-32.45,0,*7F
1504796703.62,12162,16.81,73486.0,1.05,-32.75,-32.75,0,*7F
1504796704.82,12163,16.81,73490.3,1.05,-33.55,-33.55,0,*7E
1504796706.08,12164,16.81,73492.5,1.07,-33.55,-33.43,0,*7C
1504796707.3,12165,16.81,73490.8,1.05,-34.47,-34.47,0,*78
1504796708.55,12166,16.81,73480.8,1.05,-35.65,-35.41,0,*7D
1504796709.8,12167,16.81,73476.3,1.03,-34.95,-34.59,0,*7C
1504796711.01,12168,16.81,73476.8,1.01,-34.77,-34.59,0,*7D
1504796712.26,12169,16.75,73480.8,1.01,-34.53,-34.35,0,*70
1504796713.52,12170,16.81,73484.0,0.97,-34.95,-34.95,0,*46
1504796714.76,12171,16.75,73468.3,0.97,-34.41,-34.65,0,*41
1504796715.95,12172,16.81,73470.8,0.97,-33.15,-33.15,0,*44
1504796717.18,12173,16.81,73464.0,0.97,-32.63,-32.57,0,*42
1504796718.46,12174,16.81,73470.5,0.99,-32.79,-32.97,0,*4C
1504796719.71,12175,16.75,73484.0,0.99,-33.67,-33.73,0,*48
1504796720.97,12176,16.75,73480.8,0.99,-32.97,-32.69,0,*4F
1504796722.2,12177,16.81,73480.0,0.99,-33.95,-33.67,0,*42
1504796723.46,12178,16.81,73486.0,0.99,-34.59,-34.31,0,*4E
1504796724.69,12179,16.75,73486.5,0.99,-35.01,-34.59,0,*4D
1504796725.9,12180,16.81,73492.3,0.97,-34.47,-34.13,0,*48
1504796727.13,12181,16.81,73492.3,0.97,-34.13,-33.73,0,*49
1504796728.33,12182,16.81,73494.0,0.97,-34.77,-34.41,0,*4E
1504796729.57,12183,16.81,73480.5,0.97,-34.65,-34.47,0,*4A
1504796730.81,12184,16.75,73458.8,0.93,-34.31,-34.31,0,*49
1504796732.09,12185,16.81,73430.0,0.91,-34.53,-34.35,0,*4A
1504796733.35,12186,16.75,73436.5,0.91,-33.09,-33.37,0,*44
1504796734.61,12187,16.81,73454.3,0.91,-33.21,-33.27,0,*4E
1504796735.84,12188,16.81,73470.5,0.91,-33.95,-33.95,0,*47
1504796737.1,12189,16.75,73474.5,0.91,-33.37,-33.27,0,*47
1504796738.32,12190,16.81,73478.8,0.93,-33.61,-33.55,0,*4B
1504796739.57,12191,16.75,73482.3,0.93,-33.61,-33.27,0,*4F
1504796740.8,12192,16.81,73484.8,0.93,-33.55,-33.27,0,*4B
1504796742.08,12193,16.75,73486.5,0.91,-34.35,-34.31,0,*49
1504796743.32,12194,16.81,73482.0,0.93,-36.91,-36.55,0,*40
1504796744.58,12195,16.81,73482.3,0.91,-36.37,-35.77,0,*4C
1504796745.8,12196,16.81,73478.8,0.87,-35.17,-34.13,0,*4A
1504796747.03,12197,16.81,73474.5,0.85,-34.65,-33.15,0,*4C
1504796748.28,12198,16.75,73472.0,0.85,-33.89,-31.73,0,*44
1504796749.53,12199,16.81,73478.5,0.85,-34.65,-31.91,0,*4C
1504796750.8,12200,16.81,73476.0,0.83,-34.65,-31.33,0,*41
1504796752.02,12201,16.81,73476.8,0.85,-34.13,-30.55,0,*46
1504796753.3,12202,16.75,73476.5,0.83,-32.45,-29.01,0,*4F
1504796754.5,12203,16.75,73478.3,0.85,-31.79,-29.23,0,*44
1504796755.78,12204,16.81,73476.8,0.83,-31.73,-29.73,0,*4A
1504796757.02,12205,16.81,73480.8,0.81,-30.95,-29.13,0,*46
1504796758.25,12206,16.81,73480.8,0.81,-30.51,-28.31,0,*4C
1504796759.48,12207,16.81,73480.5,0.81,-30.61,-28.53,0,*4A
1504796760.73,12208,16.81,73480.0,0.83,-30.23,-28.25,0,*40
1504796761.93,12209,16.81,73478.5,0.85,-29.79,-27.93,0,*42
1504796763.16,12210,16.75,73472.5,0.85,-29.23,-27.45,0,*4E
1504796764.36,12211,16.75,73472.3,0.89,-28.69,-27.03,0,*4E
1504796765.62,12212,16.81,73472.5,0.89,-28.21,-26.97,0,*4D
1504796766.86,12213,16.81,73470.3,0.89,-27.83,-27.19,0,*4C
1504796768.09,12214,16.81,73470.8,0.97,-27.45,-27.71,0,*40
1504796769.32,12215,16.75,73466.0,0.97,-27.61,-28.97,0,*40
1504796770.55,12216,16.81,73466.3,0.99,-27.93,-29.83,0,*44
1504796771.84,12217,16.81,73466.3,0.99,-29.51,-31.51,0,*43
1504796773.12,12218,16.81,73464.5,0.99,-30.51,-32.07,0,*44
1504796774.39,12219,16.81,73468.3,1.01,-31.11,-32.19,0,*7F
1504796775.62,12220,16.81,73468.3,1.03,-31.45,-32.01,0,*7F
1504796776.85,12221,16.81,73472.8,1.01,-32.91,-33.27,0,*73
1504796778.08,12222,16.81,73472.0,1.01,-32.79,-32.39,0,*78
1504796779.28,12223,16.81,73476.3,1.01,-32.35,-31.33,0,*78
1504796780.54,12224,16.81,73472.0,1.03,-31.85,-30.45,0,*75
1504796781.79,12225,16.75,73470.0,1.03,-31.73,-29.79,0,*7A
1504796783.03,12226,16.75,73474.0,1.03,-31.01,-28.75,0,*71
1504796784.29,12227,16.81,73474.0,1.03,-30.61,-28.15,0,*71
1504796785.54,12228,16.75,73470.3,1.05,-30.61,-28.21,0,*7F
1504796786.8,12229,16.81,73474.3,1.07,-30.45,-28.09,0,*70
1504796788.02,12230,16.75,73470.3,1.05,-30.39,-27.93,0,*7D
1504796789.28,12231,16.75,73468.3,1.07,-29.23,-27.19,0,*7F
1504796790.53,12232,16.81,73464.0,1.07,-28.15,-26.93,0,*7B
1504796791.8,12233,16.81,73462.3,1.09,-27.61,-27.13,0,*71
1504796793.02,12234,16.81,73456.0,1.11,-27.83,-27.55,0,*71
1504796794.31,12235,16.81,73456.0,1.13,-28.09,-28.25,0,*77
1504796795.57,12236,16.81,73456.8,1.15,-27.45,-28.05,0,*77
1504796796.82,12237,16.81,73462.8,1.15,-27.61,-28.69,0,*7A
1504796798.04,12238,16.81,73466.8,1.17,-27.77,-29.23,0,*7F
1504796799.27,12239,16.75,73466.0,1.21,-28.31,-29.83,0,*7C
1504796800.48,12240,16.81,73472.3,1.23,-28.85,-30.33,0,*7C
1504796801.72,12241,16.81,73480.3,1.23,-29.29,-30.67,0,*7B
1504796802.97,12242,16.75,73482.8,1.25,-30.17,-31.67,0,*7A
1504796804.2,12243,16.81,73484.0,1.25,-29.79,-31.01,0,*7B
1504796805.46,12244,16.81,73486.5,1.25,-29.89,-31.01,0,*73
1504796806.7,12245,16.81,73490.8,1.25,-30.45,-31.57,0,*79
1504796807.95,12246,16.81,73490.3,1.23,-30.51,-31.51,0,*7F
1504796809.17,12247,16.75,73486.3,1.27,-30.61,-31.33,0,*7D
1504796810.43,12248,16.81,73486.3,1.29,-30.77,-31.29,0,*70
1504796811.66,12249,16.75,73480.0,1.29,-31.17,-31.29,0,*76
1504796812.89,12250,16.81,73474.3,1.29,-31.29,-31.45,0,*79
1504796814.12,12251,16.81,73470.3,1.29,-31.29,-31.17,0,*7F
1504796815.35,12252,16.75,73462.8,1.31,-31.11,-31.05,0,*7D
1504796816.57,12253,16.81,73458.3,1.31,-30.55,-31.01,0,*79
1504796817.85,12254,16.81,73460.8,1.33,-31.11,-31.73,0,*78
1504796819.1,12255,16.81,73466.3,1.33,-31.29,-31.73,0,*72
1504796820.38,12256,16.75,73458.8,1.33,-31.73,-32.07,0,*7E
1504796821.63,12257,16.81,73454.3,1.33,-31.61,-31.79,0,*76
1504796822.89,12258,16.81,73454.8,1.35,-31.23,-31.23,0,*76
1504796824.14,12259,16.81,73448.3,1.35,-31.57,-31.57,0,*77
1504796825.4,12260,16.81,73448.3,1.37,-32.01,-31.85,0,*70
1504796826.65,12261,16.81,73442.0,1.37,-31.67,-31.61,0,*78
1504796827.88,12262,16.81,73440.5,1.39,-32.07,-31.67,0,*76
1504796829.16,12263,16.81,73436.5,1.43,-32.63,-32.45,0,*7B
1504796830.39,12264,16.75,73422.3,1.39,-32.35,-31.95,0,*7C
1504796831.62,12265,16.75,73422.8,1.39,-32.19,-31.79,0,*71
1504796832.87,12266,16.81,73436.5,1.39,-32.07,-31.85,0,*7E
1504796834.08,12267,16.75,73440.3,1.39,-33.03,-32.91,0,*7C
1504796835.34,12268,16.81,73442.3,1.39,-33.27,-33.43,0,*7B
1504796836.55,12269,16.75,73448.0,1.39,-33.83,-33.83,0,*78
1504796837.82,12270,16.81,73460.0,1.37,-34.19,-34.35,0,*70
1504796839.07,12271,16.81,73472.0,1.35,-34.01,-34.01,0,*7D
1504796840.31,12272,16.81,73468.5,1.35,-33.73,-33.67,0,*7B
1504796841.55,12273,16.75,73466.5,1.33,-32.97,-33.15,0,*72
1504796842.81,12274,16.81,73478.3,1.33,-32.13,-32.19,0,*74
1504796844.08,12275,16.81,73484.0,1.33,-31.39,-31.73,0,*71
1504796845.28,12276,16.81,73480.8,1.35,-32.13,-32.39,0,*72
1504796846.53,12277,16.81,73480.8,1.33,-33.31,-33.55,0,*7F
1504796847.81,12278,16.81,73476.8,1.33,-33.43,-33.43,0,*72
1504796849.06,12279,16.81,73476.8,1.31,-33.61,-33.89,0,*77
1504796850.26,12280,16.75,73474.0,1.31,-33.95,-34.07,0,*7B
1504796851.49,12281,16.81,73474.5,1.29,-34.47,-34.59,0,*70
1504796852.72,12282,16.81,73470.0,1.27,-33.61,-33.67,0,*74
1504796853.96,12283,16.81,73460.5,1.27,-33.43,-33.61,0,*73
1504796855.19,12284,16.81,73458.0,1.29,-32.35,-32.39,0,*76
1504796856.41,12285,16.81,73454.8,1.29,-33.67,-33.83,0,*71
1504796857.64,12286,16.75,73452.0,1.27,-33.27,-33.21,0,*70
1504796858.85,12287,16.75,73456.3,1.27,-32.39,-32.39,0,*77
1504796860.05,12288,16.81,73460.3,1.31,-32.39,-32.23,0,*74
1504796861.3,12289,16.81,73458.0,1.31,-32.19,-31.91,0,*7D
1504796862.52,12290,16.75,73458.0,1.33,-32.35,-32.13,0,*70
1504796863.78,12291,16.81,73458.0,1.31,-32.07,-31.91,0,*7B
1504796865.03,12292,16.75,73460.8,1.33,-32.45,-32.35,0,*71
1504796866.26,12293,16.75,73464.3,1.33,-32.69,-32.69,0,*77
1504796867.52,12294,16.75,73452.0,1.33,-32.63,-32.51,0,*71
1504796868.75,12295,16.81,73458.0,1.31,-33.55,-33.43,0,*74
1504796869.95,12296,16.81,73466.0,1.31,-33.21,-33.21,0,*70
1504796871.18,12297,16.81,73470.8,1.33,-33.15,-33.15,0,*73
1504796872.43,12298,16.75,73468.0,1.31,-32.63,-32.79,0,*75
1504796873.66,12299,16.75,73470.5,1.31,-32.29,-32.35,0,*72
1504796874.91,12300,16.81,73478.8,1.33,-32.85,-33.03,0,*73
1504796876.15,12301,16.81,73478.8,1.33,-32.35,-32.63,0,*7E
1504796877.43,12302,16.81,73470.8,1.33,-31.95,-32.07,0,*76
1504796878.69,12303,16.81,73470.3,1.33,-32.51,-32.63,0,*7E
1504796879.93,12304,16.81,73468.8,1.35,-32.79,-32.97,0,*7E
1504796881.16,12305,16.75,73468.3,1.35,-33.31,-33.55,0,*7D
1504796882.38,12306,16.75,73468.5,1.35,-32.45,-32.57,0,*7F
1504796883.61,12307,16.81,73480.5,1.35,-32.01,-31.91,0,*77
1504796884.83,12308,16.81,73486.5,1.35,-32.13,-31.85,0,*7E
1504796886.06,12309,16.81,73490.0,1.37,-31.79,-31.45,0,*7E
1504796887.34,12310,16.81,73490.0,1.37,-32.19,-31.95,0,*7E
1504796888.57,12311,16.75,73490.5,1.35,-32.01,-31.51,0,*7C
1504796889.77,12312,16.81,73494.5,1.39,-32.35,-31.67,0,*71
1504796891.05,12313,16.75,73488.0,1.43,-33.43,-32.85,0,*72
1504796892.32,12314,16.81,73476.8,1.39,-33.49,-32.75,0,*7D
1504796893.55,12315,16.81,73482.8,1.39,-32.19,-31.33,0,*79
1504796894.78,12316,16.81,73488.0,1.39,-32.23,-31.61,0,*74
1504796896.04,12317,16.81,73486.3,1.39,-33.61,-33.43,0,*70
1504796897.29,12318,16.75,73488.0,1.39,-34.19,-34.31,0,*75
1504796898.55,12319,16.81,73492.5,1.35,-34.65,-34.95,0,*7D
1504796899.76,12320,16.81,73496.5,1.35,-34.59,-35.01,0,*74
1504796900.99,12321,16.81,73492.0,1.33,-34.71,-35.59,0,*74
1504796902.21,12322,16.75,73486.5,1.29,-35.47,-36.19,0,*7F
1504796903.46,12323,16.75,73480.0,1.29,-35.41,-36.07,0,*77
1504796904.7,12324,16.75,73454.0,1.23,-34.65,-35.29,0,*72